Location: Beekmeers
(50.8953°N, 3.6968°E)
Time: 02:38:33
(UTC+00:00)

SL-16 R/B - Pass Details

Date: 23 May 2024
Orbit: 842 x 845 km, 71.0° (Epoch: 21 June)

Event Time Altitude Azimuth Distance (km) Brightness Sun altitude
Rises 01:34:30 0° 328° (NNW) 3,417 5.8 -14.3°
Reaches altitude 10° 01:36:58 10° 326° (NW) 2,478 5.0 -14.1°
Maximum altitude 01:42:36 67° 245° (WSW) 917 2.2 -13.7°
Drops below altitude 10° 01:48:12 10° 164° (SSE) 2,462 4.2 -13.3°
Enters shadow 01:49:08 - 163° (SSE) 2,815 4.5 -13.2°
